Previsão horária em Aberlady

Hoje, 9 Maio, Domingo

Tempo Temperatura Precipitação Vento Pressão Humidade
00:00 +7°C° 0.1 mm 2 m/s 738 mmHg 94%
01:00 +7°C° 0 mm 2 m/s 738 mmHg 94%
02:00 +8°C° 0 mm 1 m/s 738 mmHg 94%
03:00 +8°C° 0 mm 1 m/s 738 mmHg 93%
04:00 +8°C° 0 mm 2 m/s 738 mmHg 93%
05:00 +8°C° 0 mm 2 m/s 737 mmHg 92%
06:00 +8°C° 0 mm 3 m/s 737 mmHg 91%
07:00 +9°C° 0 mm 3 m/s 737 mmHg 88%
08:00 +10°C° 0 mm 3 m/s 738 mmHg 85%
09:00 +10°C° 0 mm 4 m/s 738 mmHg 82%
10:00 +11°C° 0.1 mm 4 m/s 738 mmHg 79%
11:00 +12°C° 0.1 mm 5 m/s 738 mmHg 76%
12:00 +13°C° 0.1 mm 6 m/s 738 mmHg 72%
13:00 +13°C° 0.1 mm 6 m/s 738 mmHg 72%
14:00 +13°C° 0.1 mm 6 m/s 738 mmHg 71%
15:00 +13°C° 0.1 mm 6 m/s 737 mmHg 71%
16:00 +13°C° 0.1 mm 5 m/s 738 mmHg 72%
17:00 +13°C° 0.1 mm 5 m/s 738 mmHg 74%
18:00 +12°C° 0.1 mm 5 m/s 738 mmHg 75%
19:00 +11°C° 0 mm 4 m/s 738 mmHg 79%
20:00 +10°C° 0 mm 3 m/s 738 mmHg 84%
21:00 +8°C° 0 mm 2 m/s 739 mmHg 88%
22:00 +8°C° 0 mm 2 m/s 739 mmHg 89%
23:00 +8°C° 0 mm 2 m/s 739 mmHg 91%

Amanhã, 10 Maio, Segunda-feira

Tempo Temperatura Precipitação Vento Pressão Humidade
00:00 +7°C° 0 mm 2 m/s 739 mmHg 92%
01:00 +7°C° 0 mm 2 m/s 739 mmHg 92%
02:00 +7°C° 0 mm 2 m/s 739 mmHg 92%
03:00 +7°C° 0 mm 2 m/s 739 mmHg 92%
04:00 +8°C° 0 mm 2 m/s 739 mmHg 91%
05:00 +9°C° 0 mm 1 m/s 739 mmHg 90%
06:00 +10°C° 0 mm 1 m/s 739 mmHg 89%
07:00 +10°C° 0.1 mm 2 m/s 739 mmHg 84%
08:00 +11°C° 0.1 mm 3 m/s 739 mmHg 79%
09:00 +12°C° 0.1 mm 3 m/s 739 mmHg 75%
10:00 +12°C° 0.2 mm 3 m/s 739 mmHg 72%
11:00 +13°C° 0.2 mm 4 m/s 739 mmHg 70%
12:00 +13°C° 0.2 mm 4 m/s 739 mmHg 67%
13:00 +13°C° 0.3 mm 4 m/s 739 mmHg 70%
14:00 +13°C° 0.3 mm 4 m/s 740 mmHg 73%
15:00 +12°C° 0.3 mm 5 m/s 740 mmHg 75%
16:00 +12°C° 0.3 mm 4 m/s 740 mmHg 78%
17:00 +12°C° 0.3 mm 4 m/s 741 mmHg 80%
18:00 +11°C° 0.3 mm 4 m/s 741 mmHg 82%
19:00 +10°C° 0 mm 4 m/s 741 mmHg 84%
20:00 +9°C° 0 mm 5 m/s 742 mmHg 85%
21:00 +8°C° 0 mm 6 m/s 743 mmHg 87%
22:00 +8°C° 0 mm 6 m/s 743 mmHg 86%
23:00 +8°C° 0 mm 6 m/s 744 mmHg 84%

Depois de amanhã, 11 Maio, Terça-feira

Tempo Temperatura Precipitação Vento Pressão Humidade
00:00 +8°C° 0 mm 7 m/s 744 mmHg 83%
01:00 +6°C° 0 mm 7 m/s 745 mmHg 83%
02:00 +7°C° 0 mm 6 m/s 746 mmHg 82%
03:00 +5°C° 0 mm 6 m/s 746 mmHg 82%
04:00 +6°C° 0 mm 5 m/s 747 mmHg 82%
05:00 +6°C° 0 mm 5 m/s 747 mmHg 82%
06:00 +6°C° 0 mm 4 m/s 748 mmHg 82%
07:00 +8°C° 0 mm 4 m/s 748 mmHg 75%
08:00 +10°C° 0 mm 3 m/s 749 mmHg 68%
09:00 +11°C° 0 mm 3 m/s 749 mmHg 61%
10:00 +12°C° 0 mm 4 m/s 749 mmHg 59%
11:00 +13°C° 0 mm 4 m/s 749 mmHg 57%
12:00 +14°C° 0 mm 4 m/s 749 mmHg 54%
13:00 +13°C° 0.2 mm 4 m/s 749 mmHg 59%
14:00 +13°C° 0.2 mm 4 m/s 749 mmHg 63%
15:00 +13°C° 0.2 mm 4 m/s 749 mmHg 68%
16:00 +12°C° 0.8 mm 4 m/s 749 mmHg 76%
17:00 +11°C° 0.8 mm 4 m/s 749 mmHg 84%
18:00 +8°C° 0.8 mm 4 m/s 750 mmHg 92%
19:00 +8°C° 2.5 mm 4 m/s 749 mmHg 94%
20:00 +7°C° 2.5 mm 4 m/s 749 mmHg 95%
21:00 +7°C° 2.5 mm 4 m/s 749 mmHg 97%
22:00 +7°C° 1.3 mm 4 m/s 749 mmHg 97%
23:00 +7°C° 1.3 mm 4 m/s 749 mmHg 96%

12 Maio, Quarta-feira

Tempo Temperatura Precipitação Vento Pressão Humidade
00:00 +7°C° 1.3 mm 4 m/s 748 mmHg 95%
01:00 +7°C° 0 mm 3 m/s 749 mmHg 95%
02:00 +7°C° 0 mm 3 m/s 749 mmHg 95%
03:00 +5°C° 0 mm 3 m/s 749 mmHg 94%
04:00 +5°C° 0 mm 3 m/s 749 mmHg 94%
05:00 +7°C° 0 mm 3 m/s 749 mmHg 93%
06:00 +7°C° 0 mm 3 m/s 749 mmHg 93%
07:00 +8°C° 0 mm 3 m/s 749 mmHg 90%
08:00 +9°C° 0 mm 3 m/s 749 mmHg 87%
09:00 +10°C° 0 mm 3 m/s 749 mmHg 83%
10:00 +11°C° 0.1 mm 4 m/s 749 mmHg 80%
11:00 +12°C° 0.1 mm 4 m/s 749 mmHg 77%
12:00 +13°C° 0.1 mm 4 m/s 749 mmHg 73%
13:00 +12°C° 0.1 mm 4 m/s 749 mmHg 74%
14:00 +12°C° 0.1 mm 4 m/s 749 mmHg 75%
15:00 +12°C° 0.1 mm 4 m/s 749 mmHg 75%
16:00 +12°C° 0.2 mm 4 m/s 750 mmHg 79%
17:00 +11°C° 0.2 mm 4 m/s 750 mmHg 82%
18:00 +11°C° 0.2 mm 4 m/s 750 mmHg 86%
19:00 +10°C° 0.2 mm 4 m/s 750 mmHg 89%
20:00 +9°C° 0.2 mm 3 m/s 751 mmHg 92%
21:00 +8°C° 0.2 mm 3 m/s 751 mmHg 95%
22:00 +8°C° 0 mm 3 m/s 751 mmHg 95%
23:00 +7°C° 0 mm 3 m/s 751 mmHg 95%

13 Maio, Quinta-feira

Tempo Temperatura Precipitação Vento Pressão Humidade
00:00 +7°C° 0 mm 2 m/s 751 mmHg 96%
01:00 +7°C° 0 mm 2 m/s 751 mmHg 96%
02:00 +7°C° 0 mm 2 m/s 751 mmHg 96%
03:00 +7°C° 0 mm 3 m/s 751 mmHg 96%
04:00 +8°C° 0 mm 3 m/s 751 mmHg 96%
05:00 +8°C° 0 mm 3 m/s 751 mmHg 95%
06:00 +8°C° 0 mm 3 m/s 752 mmHg 95%
07:00 +9°C° 0.1 mm 3 m/s 752 mmHg 94%
08:00 +9°C° 0.1 mm 3 m/s 752 mmHg 92%
09:00 +10°C° 0.1 mm 4 m/s 752 mmHg 91%
10:00 +10°C° 0.3 mm 4 m/s 752 mmHg 88%
11:00 +11°C° 0.3 mm 4 m/s 752 mmHg 86%
12:00 +10°C° 0.3 mm 5 m/s 752 mmHg 84%
13:00 +10°C° 0.2 mm 5 m/s 752 mmHg 84%
14:00 +10°C° 0.2 mm 5 m/s 753 mmHg 84%
15:00 +10°C° 0.2 mm 5 m/s 753 mmHg 84%
16:00 +9°C° 0.1 mm 5 m/s 753 mmHg 85%
17:00 +9°C° 0.1 mm 5 m/s 753 mmHg 85%
18:00 +9°C° 0.1 mm 5 m/s 753 mmHg 85%
19:00 +8°C° 0 mm 4 m/s 754 mmHg 88%
20:00 +7°C° 0 mm 4 m/s 754 mmHg 90%
21:00 +5°C° 0 mm 4 m/s 754 mmHg 93%
22:00 +5°C° 0 mm 4 m/s 754 mmHg 94%
23:00 +5°C° 0 mm 4 m/s 754 mmHg 95%

14 Maio, Sexta-feira

Tempo Temperatura Precipitação Vento Pressão Humidade
00:00 +5°C° 0 mm 4 m/s 754 mmHg 96%
01:00 +5°C° 0 mm 4 m/s 754 mmHg 94%
02:00 +4°C° 0 mm 4 m/s 754 mmHg 92%
03:00 +4°C° 0 mm 4 m/s 754 mmHg 90%
04:00 +5°C° 0 mm 4 m/s 754 mmHg 89%
05:00 +5°C° 0 mm 4 m/s 754 mmHg 87%
06:00 +5°C° 0 mm 4 m/s 755 mmHg 85%
07:00 +7°C° 0 mm 3 m/s 755 mmHg 82%
08:00 +8°C° 0 mm 3 m/s 755 mmHg 78%
09:00 +8°C° 0 mm 3 m/s 755 mmHg 75%
10:00 +9°C° 0 mm 3 m/s 755 mmHg 72%
11:00 +10°C° 0 mm 3 m/s 755 mmHg 69%
12:00 +11°C° 0 mm 3 m/s 755 mmHg 66%
13:00 +11°C° 0 mm 3 m/s 754 mmHg 66%
14:00 +11°C° 0 mm 3 m/s 754 mmHg 65%
15:00 +12°C° 0 mm 3 m/s 754 mmHg 65%
16:00 +12°C° 0 mm 3 m/s 754 mmHg 67%
17:00 +12°C° 0 mm 2 m/s 754 mmHg 68%
18:00 +12°C° 0 mm 2 m/s 754 mmHg 69%
19:00 +10°C° 0 mm 2 m/s 754 mmHg 75%
20:00 +8°C° 0 mm 2 m/s 754 mmHg 81%
21:00 +7°C° 0 mm 2 m/s 755 mmHg 86%
22:00 +7°C° 0 mm 2 m/s 755 mmHg 85%
23:00 +8°C° 0 mm 1 m/s 755 mmHg 84%
Mostrar mais

Necessitamos do seu Consentimento

A Meteoprog e os seus Fornecedores de Serviços podem armazenar e aceder a dados pessoais como cookies, identificadores do dispositivo ou outras tecnologias semelhantes existentes no seu dispositivo e processar estes dados para personalizar conteúdos e anúncios, assim como funcionalidades nas redes sociais e análise de tráfego.

  • Armazenar e/ou aceder a informações no seu dispositivo

    Os cookies, identificadores do dispositivo ou outras informações podem ser armazenados ou acedidos no seu dispositivo, para os fins acima indicados.

  • Anúncios e conteúdos personalizados, medição de anúncios e conteúdos, dados sobre o público-alvo e desenvolvimento de produtos

    Os anúncios e os conteúdos podem ser personalizados com base num perfil. Podem ser adicionados dados adicionais para uma maior personalização dos anúncios e dos conteúdos. A eficácia dos anúncios e dos conteúdos pode ser medida. Podem ser obtidas informações sobre o público que visualizou os anúncios e os conteúdos. Estes dados podem ser usados para desenvolver ou melhorar sistemas, softwares ou a experiência do utilizador.

Ao clicar em "Eu concordo”, permitirá o uso de cookies, identificadores do dispositivo e web beacons mencionados ou outras tecnologias semelhantes. As configurações do navegador do seu dispositivo podem ser alteradas.

Para certos fins, podem ser invocados interesses legítimos ao invés de consentimento. Pode ler mais informação sobre este assunto na nossa Política de Privacidade e Cookies.